| time (UTC) | temp F | wind direction | speed MPH | gust MPH | rain 1hr in | rain 24hr in | rain mn in | humidity % | barometer mb |
| 20260902073603 | 75 | 18 | 2.0 | 6.0 | 0.00 | 0.00 | 0.00 | 73 | 1020.5 |
| 20260902072703 | 75 | 14 | 3.0 | 4.0 | 0.00 | 0.00 | 0.00 | 74 | 1020.6 |
| 20260902071803 | 74 | 17 | 3.0 | 4.0 | 0.00 | 0.00 | 0.00 | 74 | 1020.7 |
| 20260902070903 | 74 | 16 | 3.0 | 6.0 | 0.00 | 0.00 | 0.00 | 75 | 1020.5 |
| 20260902070006 | 74 | 4 | 3.0 | 5.0 | 0.00 | 0.00 | 0.00 | 75 | 1020.5 |
| 20260902065403 | 74 | 14 | 4.0 | 5.0 | 0.00 | 0.00 | 0.00 | 76 | 1020.3 |
| 20260902064717 | 73 | 358 | 4.0 | 7.0 | 0.00 | 0.00 | 0.00 | 77 | 1020.3 |
| 20260902063603 | 73 | 10 | 5.0 | 9.0 | 0.00 | 0.00 | 0.00 | 77 | 1020.3 |
| 20260902062703 | 72 | 353 | 5.0 | 9.0 | 0.00 | 0.00 | 0.00 | 77 | 1020.3 |
| 20260902061804 | 72 | 1 | 5.0 | 9.0 | 0.00 | 0.00 | 0.00 | 79 | 1020.2 |
| 20260902061117 | 72 | 7 | 4.0 | 9.0 | 0.00 | 0.00 | 0.00 | 79 | 1020.2 |
| 20260902060003 | 71 | 4 | 3.0 | 7.0 | 0.00 | 0.00 | 0.00 | 81 | 1020.2 |
| 20260902055404 | 70 | 9 | 3.0 | 7.0 | 0.00 | 0.00 | 0.00 | 82 | 1020.2 |
| 20260902054503 | 70 | 8 | 3.0 | 7.0 | 0.00 | 0.00 | 0.00 | 82 | 1020.0 |
| 20260902053603 | 70 | 8 | 2.0 | 7.0 | 0.00 | 0.00 | 0.00 | 83 | 1020.1 |
| 20260902052703 | 69 | 354 | 1.0 | 5.0 | 0.00 | 0.00 | 0.00 | 84 | 1020.0 |
| 20260902051804 | 69 | 4 | 2.0 | 3.0 | 0.00 | 0.00 | 0.00 | 83 | 1019.8 |
| 20260902051116 | 69 | 6 | 2.0 | 5.0 | 0.00 | 0.00 | 0.00 | 83 | 1019.8 |
| 20260902050005 | 69 | 297 | 3.0 | 4.0 | 0.00 | 0.00 | 0.00 | 83 | 1019.8 |
| 20260902045403 | 69 | 316 | 3.0 | 6.0 | 0.00 | 0.00 | 0.00 | 83 | 1019.7 |
| 20260902044503 | 69 | 329 | 3.0 | 6.0 | 0.00 | 0.00 | 0.00 | 83 | 1019.7 |
| 20260902043818 | 69 | 358 | 4.0 | 7.0 | 0.00 | 0.00 | 0.00 | 83 | 1019.8 |
| 20260902042703 | 69 | 314 | 4.0 | 8.0 | 0.00 | 0.00 | 0.00 | 83 | 1019.8 |
| 20260902041803 | 69 | 303 | 3.0 | 7.0 | 0.00 | 0.00 | 0.00 | 84 | 1019.7 |
| 20260902040903 | 69 | 334 | 1.0 | 5.0 | 0.00 | 0.00 | 0.00 | 85 | 1019.6 |
| 20260902040004 | 69 | 337 | 1.0 | 3.0 | 0.00 | 0.00 | 0.00 | 84 | 1019.7 |
| 20260902035403 | 69 | 344 | 2.0 | 3.0 | 0.00 | 0.00 | 0.00 | 84 | 1019.6 |
| 20260902034503 | 69 | 352 | 2.0 | 4.0 | 0.00 | 0.00 | 0.00 | 84 | 1019.6 |
| 20260902033604 | 69 | 9 | 1.0 | 4.0 | 0.00 | 0.00 | 0.00 | 84 | 1019.7 |
| 20260902032703 | 69 | 357 | 2.0 | 4.0 | 0.00 | 0.00 | 0.00 | 83 | 1019.7 |
| 20260902031803 | 70 | 3 | 2.0 | 4.0 | 0.00 | 0.00 | 0.00 | 82 | 1019.8 |
| 20260902030904 | 70 | 346 | 2.0 | 4.0 | 0.00 | 0.00 | 0.00 | 82 | 1019.8 |
| 20260902030003 | 70 | 321 | 3.0 | 4.0 | 0.00 | 0.00 | 0.00 | 81 | 1019.7 |
| 20260902025403 | 70 | 10 | 3.0 | 6.0 | 0.00 | 0.00 | 0.00 | 81 | 1019.7 |
| 20260902024503 | 70 | 345 | 4.0 | 7.0 | 0.00 | 0.00 | 0.00 | 81 | 1019.8 |
| 20260902023603 | 70 | 336 | 4.0 | 6.0 | 0.00 | 0.00 | 0.00 | 81 | 1019.7 |
| 20260902022703 | 70 | 337 | 3.0 | 7.0 | 0.00 | 0.00 | 0.00 | 81 | 1019.8 |
| 20260902021803 | 70 | 330 | 3.0 | 6.0 | 0.00 | 0.00 | 0.00 | 81 | 1019.7 |
| 20260902020904 | 70 | 338 | 2.0 | 7.0 | 0.00 | 0.00 | 0.00 | 81 | 1019.7 |
| 20260902015403 | 70 | 348 | 2.0 | 4.0 | 0.00 | 0.00 | 0.00 | 81 | 1019.7 |
| 20260902014503 | 70 | 1 | 1.0 | 2.0 | 0.00 | 0.00 | 0.00 | 81 | 1019.6 |
| 20260902013603 | 70 | 277 | 1.0 | 3.0 | 0.00 | 0.00 | 0.00 | 81 | 1019.6 |
| 20260902012703 | 71 | 311 | 3.0 | 4.0 | 0.00 | 0.00 | 0.00 | 81 | 1019.6 |
| 20260902012018 | 71 | 356 | 3.0 | 4.0 | 0.00 | 0.00 | 0.00 | 81 | 1019.6 |
| 20260902010904 | 70 | 9 | 1.0 | 6.0 | 0.00 | 0.00 | 0.00 | 82 | 1019.7 |
| 20260902010003 | 70 | 0 | 0.0 | 0.0 | 0.00 | 0.00 | 0.00 | 82 | 1019.6 |
| 20260902005404 | 70 | 0 | 0.0 | 0.0 | 0.00 | 0.00 | 0.00 | 82 | 1019.8 |
| 20260902004503 | 70 | 0 | 0.0 | 0.0 | 0.00 | 0.00 | 0.00 | 82 | 1019.7 |
| 20260902003603 | 70 | 0 | 0.0 | 0.0 | 0.00 | 0.00 | 0.00 | 82 | 1019.7 |
| 20260902002703 | 70 | 0 | 0.0 | 0.0 | 0.00 | 0.00 | 0.00 | 82 | 1019.7 |
| 20260902002017 | 70 | 0 | 0.0 | 0.0 | 0.00 | 0.00 | 0.00 | 82 | 1019.8 |
| 20260902000904 | 70 | 0 | 0.0 | 0.0 | 0.00 | 0.00 | 0.00 | 82 | 1019.7 |
| 20260902000003 | 71 | 0 | 0.0 | 0.0 | 0.00 | 0.00 | 0.00 | 82 | 1019.8 |
| 20260901235403 | 71 | 0 | 0.0 | 0.0 | 0.00 | 0.00 | 0.00 | 81 | 1019.8 |
| 20260901234503 | 71 | 0 | 0.0 | 0.0 | 0.00 | 0.00 | 0.00 | 81 | 1019.7 |
| 20260901233603 | 71 | 0 | 0.0 | 0.0 | 0.00 | 0.00 | 0.00 | 81 | 1019.7 |
| 20260901232918 | 71 | 0 | 0.0 | 0.0 | 0.00 | 0.00 | 0.00 | 80 | 1019.6 |
| 20260901231803 | 72 | 354 | 1.0 | 4.0 | 0.00 | 0.00 | 0.00 | 79 | 1019.7 |
| 20260901231118 | 72 | 352 | 1.0 | 4.0 | 0.00 | 0.00 | 0.00 | 79 | 1019.6 |
| 20260901230003 | 72 | 319 | 2.0 | 3.0 | 0.00 | 0.00 | 0.00 | 79 | 1019.7 |
| 20260901225404 | 72 | 294 | 2.0 | 3.0 | 0.00 | 0.00 | 0.00 | 78 | 1019.7 |
| 20260901224503 | 73 | 9 | 3.0 | 5.0 | 0.00 | 0.00 | 0.00 | 78 | 1019.7 |
| 20260901223603 | 73 | 18 | 3.0 | 8.0 | 0.00 | 0.00 | 0.00 | 76 | 1019.8 |
| 20260901222703 | 73 | 25 | 3.0 | 7.0 | 0.00 | 0.00 | 0.00 | 76 | 1019.8 |
| 20260901221803 | 73 | 9 | 3.0 | 6.0 | 0.00 | 0.00 | 0.00 | 76 | 1019.6 |
| 20260901220904 | 73 | 334 | 3.0 | 6.0 | 0.00 | 0.00 | 0.00 | 76 | 1019.5 |
| 20260901220004 | 74 | 6 | 3.0 | 6.0 | 0.00 | 0.00 | 0.00 | 76 | 1019.5 |
| 20260901215403 | 74 | 6 | 3.0 | 6.0 | 0.00 | 0.00 | 0.00 | 76 | 1019.4 |
| 20260901214718 | 74 | 5 | 3.0 | 4.0 | 0.00 | 0.00 | 0.00 | 76 | 1019.5 |
| 20260901213603 | 73 | 347 | 2.0 | 6.0 | 0.00 | 0.00 | 0.00 | 77 | 1019.5 |
| 20260901212917 | 72 | 331 | 1.0 | 4.0 | 0.00 | 0.00 | 0.00 | 78 | 1019.6 |
| 20260901211803 | 72 | 267 | 0.0 | 2.0 | 0.00 | 0.00 | 0.00 | 78 | 1019.6 |
| 20260901210904 | 72 | 0 | 0.0 | 0.0 | 0.00 | 0.00 | 0.00 | 78 | 1019.5 |
| 20260901210003 | 72 | 0 | 0.0 | 0.0 | 0.00 | 0.00 | 0.00 | 79 | 1019.5 |
| 20260901205403 | 72 | 0 | 0.0 | 0.0 | 0.00 | 0.00 | 0.00 | 79 | 1019.6 |
| 20260901204503 | 72 | 0 | 0.0 | 0.0 | 0.00 | 0.00 | 0.00 | 79 | 1019.5 |
| 20260901203603 | 72 | 0 | 0.0 | 0.0 | 0.00 | 0.00 | 0.00 | 79 | 1019.5 |
| 20260901202704 | 72 | 0 | 0.0 | 0.0 | 0.00 | 0.00 | 0.00 | 79 | 1019.6 |
| 20260901202018 | 72 | 0 | 0.0 | 0.0 | 0.00 | 0.00 | 0.00 | 79 | 1019.5 |
| 20260901200903 | 72 | 0 | 0.0 | 0.0 | 0.00 | 0.00 | 0.00 | 79 | 1019.5 |
| 20260901200003 | 72 | 0 | 0.0 | 0.0 | 0.00 | 0.00 | 0.00 | 79 | 1019.5 |
| 20260901195403 | 72 | 0 | 0.0 | 0.0 | 0.00 | 0.00 | 0.00 | 78 | 1019.4 |
| 20260901194504 | 73 | 0 | 0.0 | 0.0 | 0.00 | 0.00 | 0.00 | 78 | 1019.4 |
| 20260901193603 | 73 | 0 | 0.0 | 0.0 | 0.00 | 0.00 | 0.00 | 77 | 1019.3 |
| 20260901192703 | 73 | 0 | 0.0 | 0.0 | 0.00 | 0.00 | 0.00 | 77 | 1019.2 |
| 20260901191804 | 74 | 0 | 0.0 | 0.0 | 0.00 | 0.00 | 0.00 | 76 | 1019.1 |
| 20260901190903 | 74 | 0 | 0.0 | 0.0 | 0.00 | 0.00 | 0.00 | 75 | 1019.0 |
| 20260901190005 | 74 | 0 | 0.0 | 0.0 | 0.00 | 0.00 | 0.00 | 75 | 1018.9 |
| 20260901185403 | 74 | 0 | 0.0 | 0.0 | 0.00 | 0.00 | 0.00 | 75 | 1018.8 |
| 20260901184503 | 74 | 0 | 0.0 | 0.0 | 0.00 | 0.00 | 0.00 | 76 | 1018.5 |
| 20260901183816 | 74 | 0 | 0.0 | 0.0 | 0.00 | 0.00 | 0.00 | 76 | 1018.5 |
| 20260901182703 | 75 | 0 | 0.0 | 0.0 | 0.00 | 0.00 | 0.00 | 76 | 1018.5 |
| 20260901181803 | 75 | 0 | 0.0 | 0.0 | 0.00 | 0.00 | 0.00 | 75 | 1018.3 |
| 20260901180903 | 76 | 229 | 1.0 | 1.0 | 0.00 | 0.00 | 0.00 | 74 | 1018.3 |
| 20260901180003 | 76 | 229 | 0.0 | 1.0 | 0.00 | 0.00 | 0.00 | 72 | 1018.2 |
| 20260901175403 | 77 | 229 | 1.0 | 1.0 | 0.00 | 0.00 | 0.00 | 71 | 1018.2 |
| 20260901174503 | 78 | 229 | 1.0 | 2.0 | 0.00 | 0.00 | 0.00 | 69 | 1018.1 |
| 20260901173603 | 79 | 265 | 0.0 | 2.0 | 0.00 | 0.00 | 0.00 | 67 | 1018.1 |
| 20260901172917 | 80 | 38 | 0.0 | 2.0 | 0.00 | 0.00 | 0.00 | 65 | 1018.1 |
| 20260901171803 | 81 | 84 | 0.0 | 3.0 | 0.00 | 0.00 | 0.00 | 64 | 1018.0 |
| 20260901170904 | 81 | 75 | 1.0 | 2.0 | 0.00 | 0.00 | 0.00 | 61 | 1018.1 |
| 20260901170217 | 81 | 86 | 2.0 | 4.0 | 0.00 | 0.00 | 0.00 | 60 | 1018.1 |
| 20260901165403 | 82 | 98 | 3.0 | 7.0 | 0.00 | 0.00 | 0.00 | 58 | 1018.0 |
| 20260901164503 | 82 | 97 | 3.0 | 7.0 | 0.00 | 0.00 | 0.00 | 57 | 1018.1 |
| 20260901163818 | 82 | 87 | 2.0 | 7.0 | 0.00 | 0.00 | 0.00 | 56 | 1018.1 |
| 20260901162703 | 82 | 102 | 2.0 | 6.0 | 0.00 | 0.00 | 0.00 | 58 | 1018.1 |
| 20260901161803 | 82 | 80 | 3.0 | 6.0 | 0.00 | 0.00 | 0.00 | 56 | 1018.1 |
| 20260901160904 | 82 | 85 | 3.0 | 7.0 | 0.00 | 0.00 | 0.00 | 55 | 1018.2 |
| 20260901160003 | 83 | 62 | 1.0 | 5.0 | 0.00 | 0.00 | 0.00 | 55 | 1018.2 |
| 20260901155403 | 83 | 62 | 3.0 | 4.0 | 0.00 | 0.00 | 0.00 | 56 | 1018.2 |
| 20260901154503 | 82 | 92 | 4.0 | 8.0 | 0.00 | 0.00 | 0.00 | 55 | 1018.2 |
| 20260901153603 | 82 | 118 | 3.0 | 9.0 | 0.00 | 0.00 | 0.00 | 55 | 1018.2 |
| 20260901152704 | 83 | 120 | 3.0 | 7.0 | 0.00 | 0.00 | 0.00 | 55 | 1018.2 |
| 20260901151803 | 83 | 79 | 5.0 | 9.0 | 0.00 | 0.00 | 0.00 | 55 | 1018.2 |
| 20260901151117 | 83 | 88 | 5.0 | 9.0 | 0.00 | 0.00 | 0.00 | 55 | 1018.2 |
| 20260901150003 | 82 | 103 | 5.0 | 10.0 | 0.00 | 0.00 | 0.00 | 55 | 1018.3 |
| 20260901145403 | 82 | 101 | 5.0 | 11.0 | 0.00 | 0.00 | 0.00 | 55 | 1018.3 |
| 20260901144503 | 83 | 87 | 4.0 | 9.0 | 0.00 | 0.00 | 0.00 | 54 | 1018.3 |
| 20260901143603 | 83 | 82 | 4.0 | 10.0 | 0.00 | 0.00 | 0.00 | 54 | 1018.3 |
| 20260901142703 | 82 | 109 | 5.0 | 11.0 | 0.00 | 0.00 | 0.00 | 56 | 1018.4 |
| 20260901141803 | 82 | 87 | 3.0 | 11.0 | 0.00 | 0.00 | 0.00 | 57 | 1018.4 |
| 20260901140903 | 82 | 74 | 4.0 | 7.0 | 0.00 | 0.00 | 0.00 | 57 | 1018.5 |
| 20260901140003 | 82 | 96 | 4.0 | 11.0 | 0.00 | 0.00 | 0.00 | 57 | 1018.4 |
| 20260901135403 | 82 | 84 | 3.0 | 11.0 | 0.00 | 0.00 | 0.00 | 58 | 1018.4 |
| 20260901134503 | 82 | 96 | 5.0 | 9.0 | 0.00 | 0.00 | 0.00 | 57 | 1018.5 |
| 20260901133603 | 81 | 92 | 4.0 | 10.0 | 0.00 | 0.00 | 0.00 | 58 | 1018.7 |
| 20260901132918 | 81 | 95 | 5.0 | 8.0 | 0.00 | 0.00 | 0.00 | 58 | 1018.7 |
| 20260901131803 | 81 | 110 | 3.0 | 11.0 | 0.00 | 0.00 | 0.00 | 57 | 1018.8 |
| 20260901130903 | 81 | 72 | 5.0 | 10.0 | 0.00 | 0.00 | 0.00 | 58 | 1019.1 |
| 20260901130218 | 81 | 87 | 5.0 | 10.0 | 0.00 | 0.00 | 0.00 | 58 | 1019.1 |
| 20260901125403 | 81 | 95 | 5.0 | 9.0 | 0.00 | 0.00 | 0.00 | 59 | 1019.3 |
| 20260901124503 | 80 | 99 | 6.0 | 11.0 | 0.00 | 0.00 | 0.00 | 61 | 1019.4 |
| 20260901123603 | 80 | 93 | 6.0 | 11.0 | 0.00 | 0.00 | 0.00 | 61 | 1019.5 |
| 20260901122704 | 80 | 84 | 5.0 | 11.0 | 0.00 | 0.00 | 0.00 | 62 | 1019.6 |
| 20260901121803 | 80 | 114 | 3.0 | 10.0 | 0.00 | 0.00 | 0.00 | 63 | 1019.6 |
| 20260901120903 | 80 | 84 | 4.0 | 9.0 | 0.00 | 0.00 | 0.00 | 62 | 1019.7 |
| 20260901120004 | 80 | 67 | 4.0 | 9.0 | 0.00 | 0.00 | 0.00 | 61 | 1019.7 |
| 20260901115403 | 80 | 86 | 5.0 | 7.0 | 0.00 | 0.00 | 0.00 | 62 | 1019.7 |
| 20260901114503 | 79 | 103 | 5.0 | 11.0 | 0.00 | 0.00 | 0.00 | 63 | 1019.8 |
| 20260901113603 | 80 | 84 | 4.0 | 10.0 | 0.00 | 0.00 | 0.00 | 61 | 1019.8 |
| 20260901112703 | 80 | 94 | 4.0 | 9.0 | 0.00 | 0.00 | 0.00 | 61 | 1019.8 |
| 20260901111804 | 80 | 99 | 5.0 | 9.0 | 0.00 | 0.00 | 0.00 | 61 | 1019.8 |
| 20260901110903 | 79 | 95 | 5.0 | 11.0 | 0.00 | 0.00 | 0.00 | 62 | 1019.9 |
| 20260901110003 | 79 | 91 | 4.0 | 12.0 | 0.00 | 0.00 | 0.00 | 63 | 1020.0 |
| 20260901105403 | 79 | 80 | 3.0 | 15.0 | 0.00 | 0.00 | 0.00 | 64 | 1019.8 |
| 20260901104504 | 78 | 303 | 3.0 | 13.0 | 0.00 | 0.00 | 0.00 | 68 | 1019.9 |
| 20260901103817 | 79 | 64 | 3.0 | 8.0 | 0.00 | 0.00 | 0.00 | 68 | 1020.0 |
| 20260901102703 | 79 | 69 | 4.0 | 10.0 | 0.00 | 0.00 | 0.00 | 70 | 1019.8 |
| 20260901101804 | 77 | 98 | 3.0 | 10.0 | 0.00 | 0.00 | 0.00 | 71 | 1019.9 |
| 20260901100903 | 76 | 102 | 3.0 | 8.0 | 0.00 | 0.00 | 0.00 | 73 | 1020.0 |
| 20260901100004 | 76 | 81 | 2.0 | 6.0 | 0.00 | 0.00 | 0.00 | 74 | 1020.1 |
| 20260901095403 | 76 | 48 | 2.0 | 7.0 | 0.00 | 0.00 | 0.00 | 73 | 1020.1 |
| 20260901094503 | 76 | 87 | 2.0 | 6.0 | 0.00 | 0.00 | 0.00 | 74 | 1020.1 |
| 20260901093603 | 76 | 78 | 3.0 | 6.0 | 0.00 | 0.00 | 0.00 | 74 | 1020.2 |
| 20260901092703 | 76 | 70 | 4.0 | 8.0 | 0.00 | 0.00 | 0.00 | 74 | 1020.1 |
| 20260901091803 | 76 | 61 | 4.0 | 10.0 | 0.00 | 0.00 | 0.00 | 74 | 1020.1 |
| 20260901090904 | 76 | 60 | 4.0 | 10.0 | 0.00 | 0.00 | 0.00 | 73 | 1020.0 |
| 20260901090003 | 76 | 40 | 4.0 | 9.0 | 0.00 | 0.00 | 0.00 | 73 | 1020.0 |
| 20260901085403 | 76 | 62 | 5.0 | 9.0 | 0.00 | 0.00 | 0.00 | 74 | 1019.9 |
| 20260901084503 | 75 | 80 | 4.0 | 9.0 | 0.00 | 0.00 | 0.00 | 74 | 1019.8 |
| 20260901083604 | 75 | 39 | 4.0 | 11.0 | 0.00 | 0.00 | 0.00 | 73 | 1019.8 |
| 20260901082918 | 75 | 45 | 4.0 | 11.0 | 0.00 | 0.00 | 0.00 | 72 | 1019.7 |
| 20260901081803 | 75 | 6 | 4.0 | 10.0 | 0.00 | 0.00 | 0.00 | 66 | 1019.7 |
| 20260901080903 | 75 | 3 | 4.0 | 7.0 | 0.00 | 0.00 | 0.00 | 67 | 1019.6 |
| 20260901080004 | 74 | 360 | 4.0 | 6.0 | 0.00 | 0.00 | 0.00 | 68 | 1019.5 |
| 20260901075618 | 74 | 11 | 4.0 | 7.0 | 0.00 | 0.00 | 0.00 | 67 | 1019.6 |
| 20260901074717 | 74 | 27 | 4.0 | 8.0 | 0.00 | 0.00 | 0.00 | 67 | 1019.4 |